period_start,C,m1,H,J0,J1,J2,J3,J4,J5,JA,JB,JC,JD,JJ,JK,JN,#
2017-03-30 00:03:10,0.11,1.48,0.00,24.64,27.72,31.02,14.30,49.08,1010.26,2028.02,2949.29,2681.48,3055.87,600.19,589.21,19.20,0000 0000 0000 0000 000000
2017-03-30 00:08:11,0.10,1.48,0.00,24.48,27.72,31.11,14.33,49.42,1009.98,2028.00,2947.19,2680.05,3054.23,599.94,589.28,19.25,0000 0000 0000 0000 000000
2017-03-30 00:13:12,0.11,1.49,0.00,24.67,27.72,31.27,14.32,49.41,1009.84,2028.01,2945.23,2678.67,3052.63,599.50,588.38,19.30,0000 0000 0000 0000 000000
2017-03-30 00:18:13,0.09,1.49,0.00,24.66,27.72,31.32,14.28,49.17,1009.98,2028.01,2943.43,2677.40,3051.15,599.90,588.70,19.35,0000 0000 0000 0000 000000
2017-03-30 00:23:14,0.10,1.50,0.00,24.61,27.72,31.25,14.39,49.17,1009.84,2028.01,2941.51,2676.06,3049.60,600.09,588.89,19.40,0000 0000 0000 0000 000000
2017-03-30 00:28:16,0.11,1.50,0.00,24.61,27.72,31.20,14.34,49.21,1009.79,2028.02,2939.64,2674.78,3048.15,599.97,588.85,19.45,0000 0000 0000 0000 000000
2017-03-30 00:33:17,0.10,1.51,0.00,24.70,27.72,31.18,14.24,49.10,1009.78,2028.01,2937.72,2673.50,3046.62,599.79,588.35,19.50,0000 0000 0000 0000 000000
2017-03-30 00:38:19,0.09,1.52,0.00,25.00,27.72,31.11,14.24,49.27,1009.78,2028.02,2935.89,2672.18,3045.12,600.15,588.19,19.55,0000 0000 0000 0000 000000
2017-03-30 00:43:20,0.12,1.52,0.00,24.70,27.72,31.01,14.33,49.13,1009.74,2028.03,2934.00,2670.73,3043.56,599.89,588.51,19.60,0000 0000 0000 0000 000000
2017-03-30 00:48:21,0.09,1.53,0.00,24.56,27.72,31.06,14.30,49.17,1009.65,2028.01,2932.09,2669.49,3041.96,599.80,588.73,19.65,0000 0000 0000 0000 000000
2017-03-30 00:53:22,0.10,1.53,0.00,24.77,27.73,31.08,14.29,49.08,1009.36,2028.01,2930.24,2668.23,3040.52,599.97,588.26,19.70,0000 0000 0000 0000 000000
2017-03-30 00:58:23,0.10,1.54,0.00,24.83,27.75,31.22,14.36,49.12,1009.30,2028.00,2928.39,2666.88,3039.02,600.01,588.12,19.75,0000 0000 0000 0000 000000
2017-03-30 01:03:24,0.10,1.54,0.00,24.88,27.75,31.26,14.38,49.10,1009.29,2028.01,2926.55,2665.57,3037.51,600.35,588.30,19.80,0000 0000 0000 0000 000000
2017-03-30 01:08:26,0.09,1.55,0.00,25.09,27.75,31.14,14.28,49.13,1009.11,2028.00,2924.79,2664.40,3036.04,600.12,587.71,19.85,0000 0000 0000 0000 000000
2017-03-30 01:13:27,0.11,1.55,0.00,24.80,27.75,31.01,14.29,49.09,1008.91,2028.00,2922.80,2663.02,3034.50,600.04,588.17,19.90,0000 0000 0000 0000 000000
2017-03-30 01:18:28,0.10,1.56,0.00,24.60,27.75,31.04,14.28,49.28,1008.83,2028.01,2920.89,2661.69,3032.99,599.60,587.89,19.95,0000 0000 0000 0000 000000
2017-03-30 01:23:30,0.09,1.56,0.00,24.81,27.76,31.11,14.24,49.23,1008.81,2028.01,2919.19,2660.52,3031.68,599.73,587.60,20.00,0000 0000 0000 0000 000000
2017-03-30 01:28:31,0.09,1.57,0.00,24.89,27.77,31.22,14.32,49.38,1008.80,2028.01,2917.48,2659.34,3030.29,600.16,587.85,20.05,0000 0000 0000 0000 000000
2017-03-30 01:33:32,0.10,1.57,0.00,24.96,27.77,31.21,14.21,49.22,1008.80,2028.00,2915.56,2658.05,3028.76,599.98,587.55,20.10,0000 0000 0000 0000 000000
2017-03-30 01:38:33,0.10,1.58,0.00,25.13,27.77,31.06,14.23,49.04,1008.80,2028.00,2913.74,2656.75,3027.35,600.18,587.38,20.15,0000 0000 0000 0000 000000
2017-03-30 01:43:34,0.10,1.58,0.00,24.86,27.77,30.97,14.27,48.99,1008.76,2028.00,2911.95,2655.59,3025.86,599.99,587.73,20.20,0000 0000 0000 0000 000000
2017-03-30 01:48:35,0.10,1.59,0.00,24.63,27.75,31.02,14.35,49.16,1008.45,2028.00,2910.06,2654.29,3024.51,600.44,588.39,20.26,0000 0000 0000 0000 000000
2017-03-30 01:53:37,0.11,1.59,0.00,24.81,27.75,31.12,14.34,49.19,1008.33,2028.00,2908.18,2652.90,3022.86,599.63,587.28,20.31,0000 0000 0000 0000 000000
2017-03-30 01:58:38,0.10,1.60,0.00,25.01,27.75,31.11,14.27,49.00,1008.32,2028.00,2906.33,2651.65,3021.46,600.10,587.27,20.36,0000 0000 0000 0000 000000
2017-03-30 02:03:39,0.10,1.60,0.00,25.10,27.75,31.05,14.26,49.03,1008.31,2028.00,2904.53,2650.40,3019.93,599.72,586.73,20.41,0000 0000 0000 0000 000000
2017-03-30 02:08:41,0.10,1.61,0.00,24.90,27.75,30.91,14.25,48.95,1008.11,2028.02,2902.65,2649.10,3018.53,600.07,587.46,20.46,0000 0000 0000 0000 000000
2017-03-30 02:13:42,0.09,1.61,0.00,24.85,27.72,30.95,14.27,49.14,1007.84,2028.02,2900.79,2647.91,3017.14,599.92,587.10,20.51,0000 0000 0000 0000 000000
2017-03-30 02:18:44,0.07,1.62,0.00,25.01,27.72,30.91,14.21,49.11,1007.83,2028.02,2899.41,2646.92,3016.00,600.01,586.90,20.56,0000 0000 0000 0000 000000
2017-03-30 02:23:45,0.07,1.62,0.00,25.10,27.72,30.87,14.21,49.13,1007.83,2028.03,2898.03,2646.01,3014.92,599.97,586.69,20.61,0000 0000 0000 0000 000000
2017-03-30 02:28:46,0.07,1.63,0.00,24.98,27.72,30.86,14.27,49.23,1007.83,2028.02,2896.70,2645.08,3013.86,600.00,586.97,20.66,0000 0000 0000 0000 000000
2017-03-30 02:33:47,0.08,1.63,0.00,24.94,27.71,30.86,14.26,49.17,1007.81,2028.06,2895.30,2644.11,3012.80,599.51,586.53,20.71,0000 0000 0000 0000 000000
2017-03-30 02:38:48,0.08,1.64,0.00,25.05,27.70,30.84,14.28,49.21,1007.66,2028.06,2893.94,2643.20,3011.70,600.20,586.94,20.76,0000 0000 0000 0000 000000
2017-03-30 02:43:49,0.08,1.64,0.00,25.10,27.70,30.81,14.28,49.20,1007.37,2028.12,2892.62,2642.31,3010.68,600.25,586.70,20.81,0000 0000 0000 0000 000000
2017-03-30 02:48:51,0.09,1.64,0.00,25.12,27.70,30.78,14.24,49.13,1007.34,2028.30,2891.40,2641.54,3009.73,599.92,586.33,20.86,0000 0000 0000 0000 000000
2017-03-30 02:53:52,0.07,1.65,0.00,25.11,27.70,30.77,14.21,49.02,1007.33,2028.35,2890.05,2640.66,3008.75,599.83,586.27,20.91,0000 0000 0000 0000 000000
2017-03-30 02:58:54,0.07,1.65,0.00,25.12,27.69,30.76,14.25,49.01,1007.12,2028.50,2888.77,2639.85,3007.87,600.54,586.80,20.96,0000 0000 0000 0000 000000
2017-03-30 03:03:55,0.06,1.66,0.00,25.09,27.67,30.75,14.20,49.07,1006.86,2028.53,2887.61,2638.99,3006.97,599.75,586.00,21.01,0000 0000 0000 0000 000000
2017-03-30 03:08:56,0.05,1.66,0.00,25.09,27.67,30.74,14.22,49.02,1006.85,2028.42,2886.36,2638.12,3006.04,599.99,586.12,21.06,0000 0000 0000 0000 000000
2017-03-30 03:13:58,0.09,1.66,0.00,25.13,27.67,30.72,14.23,49.13,1006.84,2028.56,2885.27,2637.34,3005.14,599.70,585.92,21.11,0000 0000 0000 0000 000000
2017-03-30 03:18:59,0.07,1.67,0.00,25.04,27.67,30.70,14.22,49.07,1006.61,2028.82,2884.15,2636.70,3004.25,599.95,586.09,21.16,0000 0000 0000 0000 000000
2017-03-30 03:24:00,0.04,1.67,0.00,25.05,27.67,30.70,14.18,49.20,1006.39,2028.82,2883.07,2635.97,3003.53,599.75,585.73,21.21,0000 0000 0000 0000 000000
2017-03-30 03:29:01,0.07,1.67,0.00,25.14,27.65,30.70,14.27,49.13,1006.37,2028.86,2882.01,2635.14,3002.73,600.10,585.93,21.26,0000 0000 0000 0000 000000
2017-03-30 03:34:02,0.06,1.68,0.00,25.15,27.65,30.68,14.19,49.07,1006.36,2028.90,2880.90,2634.46,3001.84,599.94,585.65,21.31,0000 0000 0000 0000 000000
2017-03-30 03:39:04,0.06,1.68,0.00,25.11,27.65,30.70,14.30,49.14,1006.35,2028.94,2879.78,2633.77,3001.00,600.34,586.17,21.36,0000 0000 0000 0000 000000
2017-03-30 03:44:05,0.06,1.68,0.00,25.08,27.65,30.66,14.22,49.23,1006.11,2028.97,2878.63,2632.94,3000.06,599.89,585.73,21.41,0000 0000 0000 0000 000000
2017-03-30 03:49:06,0.07,1.69,0.00,25.10,27.65,30.65,14.21,49.18,1005.90,2028.98,2877.24,2631.96,2998.95,600.12,585.85,21.46,0000 0000 0000 0000 000000
2017-03-30 03:54:08,0.08,1.69,0.00,25.14,27.65,30.65,14.20,49.21,1005.88,2028.98,2875.81,2631.01,2997.79,600.37,586.00,21.51,0000 0000 0000 0000 000000
2017-03-30 03:59:09,0.07,1.69,0.00,25.06,27.65,30.63,14.24,49.25,1005.87,2028.98,2874.58,2630.09,2996.80,599.86,585.57,21.56,0000 0000 0000 0000 000000
2017-03-30 04:04:10,0.07,1.70,0.00,24.95,27.64,30.61,14.20,49.14,1005.87,2028.97,2873.33,2629.26,2995.80,599.68,585.63,21.61,0000 0000 0000 0000 000000
2017-03-30 04:09:11,0.06,1.70,0.00,25.06,27.63,30.62,14.21,49.22,1005.85,2028.99,2872.10,2628.47,2994.90,599.85,585.45,21.66,0000 0000 0000 0000 000000
2017-03-30 04:14:13,0.04,1.70,0.00,25.13,27.62,30.58,14.20,49.21,1005.60,2028.98,2871.17,2627.82,2994.06,599.78,585.32,21.71,0000 0000 0000 0000 000000
2017-03-30 04:19:14,0.05,1.71,0.00,25.04,27.62,30.58,14.23,49.24,1005.42,2028.99,2870.26,2627.05,2993.33,600.00,585.40,21.76,0000 0000 0000 0000 000000
2017-03-30 04:24:16,0.06,1.71,0.00,25.00,27.62,30.58,14.19,49.08,1005.40,2028.99,2869.19,2626.41,2992.53,600.15,585.64,21.81,0000 0000 0000 0000 000000
2017-03-30 04:29:17,0.04,1.71,0.00,25.10,27.61,30.59,14.25,49.13,1005.39,2028.99,2868.14,2625.76,2991.78,600.14,585.42,21.86,0000 0000 0000 0000 000000
2017-03-30 04:34:19,0.05,1.72,0.00,25.15,27.61,30.58,14.19,49.08,1005.17,2028.99,2867.25,2625.02,2990.97,600.01,585.09,21.91,0000 0000 0000 0000 000000
2017-03-30 04:39:20,0.07,1.72,0.00,25.05,27.60,30.57,14.22,49.13,1004.92,2028.99,2866.22,2624.19,2990.10,600.09,585.20,21.96,0000 0000 0000 0000 000000
2017-03-30 04:44:21,0.06,1.72,0.00,25.07,27.60,30.57,14.23,49.23,1004.91,2028.99,2865.32,2623.63,2989.28,600.15,585.17,22.01,0000 0000 0000 0000 000000
2017-03-30 04:49:23,0.04,1.72,0.00,25.19,27.60,30.62,14.21,49.05,1004.90,2028.99,2864.48,2623.02,2988.59,599.94,584.83,22.06,0000 0000 0000 0000 000000
2017-03-30 04:54:24,0.06,1.73,0.00,25.08,27.60,30.60,14.22,49.19,1004.90,2028.99,2863.41,2622.42,2987.77,600.02,585.06,22.11,0000 0000 0000 0000 000000
2017-03-30 04:59:25,0.06,1.73,0.00,24.92,27.60,30.63,14.23,49.22,1004.89,2028.99,2862.28,2621.66,2986.86,600.25,585.49,22.16,0000 0000 0000 0000 000000
2017-03-30 05:04:27,0.04,1.73,0.00,25.09,27.60,30.64,14.28,49.21,1004.79,2028.99,2861.13,2620.95,2986.01,600.12,585.17,22.21,0000 0000 0000 0000 000000
2017-03-30 05:09:28,0.06,1.74,0.00,25.21,27.60,30.62,14.14,49.05,1004.50,2028.99,2860.15,2620.14,2985.17,599.82,584.46,22.26,0000 0000 0000 0000 000000
2017-03-30 05:14:29,0.06,1.74,0.00,25.07,27.60,30.62,14.24,49.17,1004.42,2028.99,2859.03,2619.50,2984.27,600.24,585.03,22.31,0000 0000 0000 0000 000000
2017-03-30 05:19:30,0.05,1.74,0.00,24.94,27.59,30.63,14.19,49.32,1004.42,2028.99,2857.97,2618.81,2983.57,599.79,584.85,22.36,0000 0000 0000 0000 000000
2017-03-30 05:24:31,0.05,1.75,0.00,25.09,27.58,30.64,14.18,49.29,1004.41,2028.99,2856.93,2618.02,2982.68,599.99,584.74,22.41,0000 0000 0000 0000 000000
2017-03-30 05:29:32,0.06,1.75,0.00,25.18,27.57,30.63,14.13,49.21,1004.34,2028.99,2855.89,2617.16,2981.85,599.78,584.29,22.46,0000 0000 0000 0000 000000
2017-03-30 05:34:34,0.04,1.75,0.00,25.06,27.57,30.62,14.15,49.07,1003.97,2028.99,2854.95,2616.74,2981.04,599.70,584.26,22.51,0000 0000 0000 0000 000000
2017-03-30 05:39:35,0.05,1.75,0.00,24.95,27.57,30.60,14.17,49.29,1003.92,2028.99,2853.92,2615.99,2980.27,599.67,584.42,22.56,0000 0000 0000 0000 000000
2017-03-30 05:44:36,0.07,1.76,0.00,25.08,27.57,30.60,14.23,49.22,1003.87,2028.99,2852.83,2615.14,2979.34,600.09,584.44,22.61,0000 0000 0000 0000 000000
2017-03-30 05:49:37,0.07,1.76,0.00,25.12,27.57,30.61,14.20,49.17,1003.52,2028.99,2851.70,2614.34,2978.46,600.01,584.25,22.66,0000 0000 0000 0000 000000
2017-03-30 05:54:39,0.06,1.76,0.00,24.94,27.57,30.62,14.24,49.13,1003.43,2028.99,2850.55,2613.64,2977.62,600.14,584.68,22.71,0000 0000 0000 0000 000000
2017-03-30 05:59:40,0.05,1.77,0.00,25.03,27.56,30.60,14.17,49.13,1003.38,2028.99,2849.37,2612.91,2976.73,599.63,584.01,22.76,0000 0000 0000 0000 000000
2017-03-30 06:04:41,0.06,1.77,0.00,25.14,27.55,30.61,14.19,49.27,1003.25,2028.99,2848.30,2612.05,2975.85,599.90,583.93,22.81,0000 0000 0000 0000 000000
2017-03-30 06:09:43,0.07,1.77,0.00,25.09,27.55,30.60,14.14,49.16,1003.26,2028.99,2847.06,2611.22,2974.80,599.60,583.70,22.86,0000 0000 0000 0000 000000
2017-03-30 06:14:44,0.07,1.78,0.00,24.93,27.55,30.55,14.17,49.29,1003.17,2029.00,2845.78,2610.44,2973.87,600.06,584.35,22.92,0000 0000 0000 0000 000000
2017-03-30 06:19:45,0.06,1.78,0.00,25.06,27.55,30.58,14.12,49.39,1002.97,2029.00,2844.71,2609.66,2972.99,599.80,583.63,22.97,0000 0000 0000 0000 000000
2017-03-30 06:24:47,0.06,1.78,0.00,25.19,27.55,30.57,14.12,49.33,1002.95,2029.00,2843.53,2608.87,2972.03,599.66,583.45,23.02,0000 0000 0000 0000 000000
2017-03-30 06:29:48,0.06,1.79,0.00,25.04,27.55,30.53,14.12,49.20,1002.94,2029.00,2842.31,2608.04,2971.10,599.98,584.00,23.07,0000 0000 0000 0000 000000
2017-03-30 06:34:49,0.07,1.79,0.00,24.98,27.55,30.54,14.18,49.19,1002.94,2029.01,2841.04,2607.20,2970.14,600.04,584.23,23.12,0000 0000 0000 0000 000000
2017-03-30 06:39:50,0.07,1.79,0.00,25.13,27.55,30.56,14.15,49.11,1002.93,2029.00,2839.87,2606.38,2969.18,599.47,583.31,23.17,0000 0000 0000 0000 000000
2017-03-30 06:44:52,0.07,1.80,0.00,25.13,27.54,30.56,14.16,49.20,1002.66,2029.00,2838.73,2605.59,2968.21,599.68,583.23,23.22,0000 0000 0000 0000 000000
2017-03-30 06:49:53,0.06,1.80,0.00,24.93,27.53,30.52,14.16,49.14,1002.48,2029.01,2837.59,2604.86,2967.39,599.94,583.88,23.27,0000 0000 0000 0000 000000
2017-03-30 06:54:55,0.06,1.81,0.00,25.02,27.52,30.52,14.20,49.13,1002.46,2029.00,2836.43,2604.05,2966.49,600.37,584.06,23.32,0000 0000 0000 0000 000000
2017-03-30 06:59:56,0.06,1.81,0.00,25.18,27.52,30.55,14.15,48.94,1002.45,2029.00,2835.40,2603.27,2965.58,600.11,583.56,23.37,0000 0000 0000 0000 000000
2017-03-30 07:04:57,0.05,1.81,0.00,25.02,27.52,30.52,14.16,48.93,1002.37,2029.02,2834.31,2602.64,2964.87,600.15,583.94,23.42,0000 0000 0000 0000 000000
2017-03-30 07:09:59,0.05,1.82,0.00,24.84,27.52,30.47,14.23,49.00,1002.08,2029.01,2833.21,2601.98,2964.05,599.96,583.86,23.47,0000 0000 0000 0000 000000
2017-03-30 07:15:00,0.06,1.82,0.00,25.04,27.51,30.51,14.21,49.02,1001.99,2029.02,2832.31,2601.18,2963.25,600.02,583.49,23.52,0000 0000 0000 0000 000000
2017-03-30 07:20:01,0.04,1.82,0.00,25.15,27.51,30.53,14.16,48.82,1001.97,2029.03,2831.45,2600.81,2962.70,600.28,583.56,23.57,0000 0000 0000 0000 000000
2017-03-30 07:25:03,0.04,1.82,0.00,24.97,27.50,30.50,14.17,48.77,1001.95,2029.04,2830.60,2600.04,2962.00,599.80,583.42,23.62,0000 0000 0000 0000 000000
2017-03-30 07:30:04,0.06,1.83,0.00,24.74,27.50,30.44,14.17,49.00,1001.71,2029.04,2829.65,2599.56,2961.22,599.82,583.69,23.67,0000 0000 0000 0000 000000
2017-03-30 07:35:05,0.02,1.83,0.00,24.90,27.49,30.47,14.15,49.07,1001.52,2029.04,2828.91,2599.01,2960.80,599.63,583.06,23.72,0000 0000 0000 0000 000000
2017-03-30 07:40:07,0.06,1.83,0.00,25.13,27.49,30.50,14.08,49.07,1001.49,2029.06,2828.08,2598.50,2960.04,599.84,583.01,23.77,0000 0000 0000 0000 000000
2017-03-30 07:45:08,0.03,1.83,0.00,25.18,27.49,30.50,14.18,48.99,1001.48,2029.07,2827.55,2598.01,2959.69,600.13,583.00,23.82,0000 0000 0000 0000 000000
2017-03-30 07:50:10,0.03,1.83,0.00,24.98,27.49,30.45,14.09,49.02,1001.42,2029.10,2826.89,2597.71,2959.02,599.76,582.94,23.87,0000 0000 0000 0000 000000
2017-03-30 07:55:11,0.05,1.84,0.00,24.86,27.47,30.42,14.23,49.02,1001.21,2029.15,2826.06,2597.05,2958.65,599.98,583.36,23.92,0000 0000 0000 0000 000000
2017-03-30 08:00:12,0.02,1.84,0.00,25.07,27.47,30.46,14.10,48.88,1001.07,2029.19,2825.56,2596.92,2958.03,600.01,582.81,23.97,0000 0000 0000 0000 000000
2017-03-30 08:05:14,0.04,1.84,0.00,25.12,27.47,30.47,14.19,48.84,1001.01,2029.23,2824.97,2596.13,2957.62,600.71,583.42,24.02,0000 0000 0000 0000 000000
2017-03-30 08:10:15,0.03,1.84,0.00,24.91,27.47,30.44,14.07,48.80,1001.00,2029.21,2824.12,2595.95,2957.02,599.82,582.80,24.07,0000 0000 0000 0000 000000
2017-03-30 08:15:16,0.06,1.85,0.00,24.96,27.47,30.42,14.25,48.97,1000.99,2029.28,2823.34,2595.19,2956.45,600.22,583.14,24.12,0000 0000 0000 0000 000000
2017-03-30 08:20:17,0.02,1.85,0.00,25.16,27.47,30.45,14.14,48.92,1000.99,2029.32,2822.97,2595.00,2956.00,599.84,582.46,24.17,0000 0000 0000 0000 000000
2017-03-30 08:25:19,0.07,1.85,0.00,25.03,27.47,30.45,14.14,48.92,1000.93,2029.57,2822.18,2594.49,2955.50,600.23,583.09,24.22,0000 0000 0000 0000 000000
2017-03-30 08:30:20,0.03,1.85,0.00,24.87,27.46,30.42,14.13,48.97,1000.73,2029.53,2821.53,2594.01,2955.01,599.75,582.81,24.27,0000 0000 0000 0000 000000
2017-03-30 08:35:21,0.03,1.85,0.00,25.05,27.45,30.44,14.09,48.90,1000.56,2029.83,2821.01,2593.91,2954.65,599.80,582.38,24.32,0000 0000 0000 0000 000000
2017-03-30 08:40:22,0.06,1.86,0.00,25.11,27.45,30.44,14.14,48.93,1000.51,2029.87,2820.42,2593.13,2954.02,600.03,582.63,24.37,0000 0000 0000 0000 000000
2017-03-30 08:45:23,0.01,1.86,0.00,24.86,27.45,30.40,14.16,49.03,1000.50,2029.88,2819.86,2592.99,2953.75,599.55,582.49,24.42,0000 0000 0000 0000 000000
2017-03-30 08:50:25,0.06,1.86,0.00,24.88,27.45,30.39,14.17,49.10,1000.46,2029.89,2819.05,2592.41,2953.04,599.91,582.78,24.47,0000 0000 0000 0000 000000
2017-03-30 08:55:26,0.02,1.86,0.00,25.13,27.45,30.43,14.09,49.01,1000.22,2029.96,2818.76,2592.02,2952.95,600.10,582.23,24.52,0000 0000 0000 0000 000000
2017-03-30 09:00:27,0.03,1.86,0.00,25.12,27.45,30.43,14.13,48.97,1000.03,2029.97,2818.02,2591.90,2952.23,600.39,582.42,24.57,0000 0000 0000 0000 000000
2017-03-30 09:05:28,0.05,1.87,0.00,24.82,27.45,30.38,14.10,48.91,1000.01,2029.97,2817.37,2591.14,2951.91,600.14,582.84,24.62,0000 0000 0000 0000 000000
2017-03-30 09:10:30,0.03,1.87,0.00,24.85,27.45,30.38,14.11,49.09,999.99,2029.98,2816.80,2590.97,2951.18,599.85,582.45,24.67,0000 0000 0000 0000 000000
2017-03-30 09:15:31,0.04,1.87,0.00,25.10,27.45,30.42,14.13,49.13,999.72,2029.97,2816.07,2590.35,2950.99,599.94,581.95,24.72,0000 0000 0000 0000 000000
2017-03-30 09:20:32,0.02,1.87,0.00,25.16,27.45,30.44,14.08,49.02,999.59,2029.98,2815.83,2590.01,2950.32,600.10,581.97,24.77,0000 0000 0000 0000 000000
2017-03-30 09:25:33,0.02,1.87,0.00,24.86,27.45,30.39,14.10,49.09,999.55,2029.97,2815.05,2589.75,2950.00,599.70,582.08,24.82,0000 0000 0000 0000 000000
2017-03-30 09:30:35,0.05,1.87,0.00,24.84,27.44,30.37,14.18,49.07,999.54,2029.97,2814.39,2589.06,2949.39,600.01,582.39,24.87,0000 0000 0000 0000 000000
2017-03-30 09:35:36,0.00,1.88,0.00,25.10,27.44,30.40,14.10,48.98,999.53,2029.97,2814.00,2588.99,2949.01,600.08,582.04,24.92,0000 0000 0000 0000 000000
2017-03-30 09:40:38,0.04,1.88,0.00,25.12,27.45,30.42,14.01,48.99,999.53,2029.98,2813.60,2588.55,2948.82,599.90,581.74,24.97,0000 0000 0000 0000 000000
2017-03-30 09:45:39,0.03,1.88,0.00,24.87,27.45,30.38,14.15,49.05,999.53,2029.99,2812.99,2588.02,2948.08,599.92,582.26,25.02,0000 0000 0000 0000 000000
2017-03-30 09:50:40,0.02,1.88,0.00,24.75,27.43,30.35,14.15,49.20,999.53,2029.98,2812.19,2587.97,2947.97,599.86,582.43,25.07,0000 0000 0000 0000 000000
2017-03-30 09:55:41,0.02,1.88,0.00,24.99,27.42,30.39,14.09,49.02,999.51,2029.99,2812.00,2587.74,2947.70,599.86,581.94,25.12,0000 0000 0000 0000 000000
2017-03-30 10:00:43,0.03,1.88,0.00,25.16,27.44,30.41,14.08,49.06,999.41,2029.99,2811.95,2587.07,2947.08,600.01,581.68,25.17,0000 0000 0000 0000 000000
2017-03-30 10:05:44,0.01,1.88,0.00,25.01,27.44,30.40,14.12,48.98,999.12,2029.99,2811.17,2587.00,2947.00,599.87,581.70,25.22,0000 0000 0000 0000 000000
2017-03-30 10:10:45,0.01,1.88,0.00,24.74,27.42,30.35,14.07,49.02,999.06,2029.99,2810.98,2586.96,2946.78,600.38,582.69,25.27,0000 0000 0000 0000 000000
2017-03-30 10:15:46,0.02,1.89,0.00,24.86,27.42,30.38,14.18,49.12,999.04,2029.99,2810.86,2586.77,2946.19,600.14,582.35,25.32,0000 0000 0000 0000 000000
2017-03-30 10:20:48,0.03,1.89,0.00,25.12,27.42,30.40,14.03,49.01,999.04,2029.99,2810.42,2586.23,2946.04,600.21,581.75,25.37,0000 0000 0000 0000 000000
2017-03-30 10:25:49,0.01,1.89,0.00,25.16,27.42,30.42,14.09,49.24,999.04,2029.99,2810.03,2586.02,2946.00,600.10,581.52,25.42,0000 0000 0000 0000 000000
2017-03-30 10:30:51,0.00,1.89,0.00,24.89,27.42,30.37,14.09,49.19,998.92,2029.99,2809.99,2586.00,2945.99,599.92,581.88,25.47,0000 0000 0000 0000 000000
2017-03-30 10:35:52,0.01,1.89,0.00,24.76,27.42,30.34,14.18,49.06,998.70,2029.99,2809.76,2585.99,2945.78,600.22,582.26,25.53,0000 0000 0000 0000 000000
2017-03-30 10:40:53,0.02,1.89,0.00,24.99,27.42,30.38,14.07,48.90,998.57,2029.99,2809.16,2585.91,2945.15,599.68,581.24,25.58,0000 0000 0000 0000 000000
2017-03-30 10:45:55,0.01,1.89,0.00,25.19,27.42,30.40,14.06,48.81,998.55,2029.99,2809.08,2585.63,2945.03,599.58,580.68,25.63,0000 0000 0000 0000 000000
2017-03-30 10:50:56,0.01,1.89,0.00,25.03,27.42,30.39,14.11,48.82,998.55,2029.99,2809.00,2585.11,2945.00,599.80,581.26,25.68,0000 0000 0000 0000 000000
2017-03-30 10:55:57,0.00,1.89,0.00,24.77,27.42,30.35,14.13,48.88,998.54,2029.99,2808.80,2585.00,2944.97,600.18,582.14,25.73,0000 0000 0000 0000 000000
2017-03-30 11:00:58,0.02,1.89,0.00,24.85,27.42,30.37,14.15,48.92,998.23,2029.99,2808.12,2584.98,2944.55,600.30,581.92,25.78,0000 0000 0000 0000 000000
2017-03-30 11:06:00,0.00,1.89,0.00,25.11,27.42,30.41,14.05,48.86,998.08,2029.99,2808.01,2584.95,2944.18,599.46,580.60,25.83,0000 0000 0000 0000 000000
2017-03-30 11:11:01,0.01,1.89,0.00,25.08,27.42,30.40,14.08,48.85,998.06,2029.99,2808.00,2584.82,2944.01,599.66,580.80,25.88,0000 0000 0000 0000 000000
2017-03-30 11:16:02,0.02,1.90,0.00,24.83,27.42,30.35,14.11,48.68,998.06,2029.99,2807.98,2584.31,2944.00,599.82,581.39,25.93,0000 0000 0000 0000 000000
2017-03-30 11:21:04,0.01,1.90,0.00,24.82,27.42,30.35,14.15,49.11,998.06,2029.99,2807.57,2584.04,2944.00,600.18,581.78,25.98,0000 0000 0000 0000 000000
2017-03-30 11:26:05,0.01,1.90,0.00,25.09,27.42,30.40,14.02,49.26,997.95,2029.99,2807.13,2584.00,2943.97,599.61,580.59,26.03,0000 0000 0000 0000 000000
2017-03-30 11:31:07,0.00,1.90,0.00,25.18,27.42,30.42,14.14,49.27,997.62,2029.99,2807.06,2584.00,2943.93,600.23,580.91,26.08,0000 0000 0000 0000 000000
2017-03-30 11:36:08,0.01,1.90,0.00,24.89,27.42,30.38,14.08,49.30,997.58,2029.99,2807.00,2584.00,2943.34,599.82,580.92,26.13,0000 0000 0000 0000 000000
2017-03-30 11:41:09,0.00,1.90,0.00,24.82,27.42,30.36,14.19,49.29,997.57,2029.99,2806.98,2583.97,2943.05,600.22,581.57,26.18,0000 0000 0000 0000 000000
2017-03-30 11:46:10,0.01,1.90,0.00,25.06,27.42,30.41,14.13,49.28,997.52,2029.99,2806.92,2583.81,2943.00,600.29,580.85,26.23,0000 0000 0000 0000 000000
2017-03-30 11:51:12,0.02,1.90,0.00,25.15,27.42,30.43,14.14,49.26,997.22,2029.99,2806.67,2583.33,2943.00,600.01,580.55,26.28,0000 0000 0000 0000 000000
2017-03-30 11:56:13,0.02,1.90,0.00,24.89,27.42,30.38,14.14,49.26,997.12,2029.99,2806.22,2583.13,2942.99,599.81,580.72,26.33,0000 0000 0000 0000 000000
2017-03-30 12:01:15,0.00,1.90,0.00,24.75,27.42,30.34,14.11,49.35,997.10,2029.99,2806.01,2583.01,2942.95,599.69,580.79,26.38,0000 0000 0000 0000 000000
2017-03-30 12:06:16,0.00,1.90,0.00,25.00,27.42,30.40,14.12,49.24,997.09,2029.99,2806.00,2583.01,2942.95,600.13,580.81,26.43,0000 0000 0000 0000 000000
2017-03-30 12:11:17,0.00,1.90,0.00,25.20,27.42,30.41,14.05,49.12,997.09,2029.99,2806.00,2583.00,2942.80,600.05,580.38,26.48,0000 0000 0000 0000 000000
2017-03-30 12:16:18,0.01,1.90,0.00,25.05,27.42,30.41,14.16,49.25,997.02,2029.99,2805.98,2582.99,2942.13,599.99,580.52,26.53,0000 0000 0000 0000 000000
2017-03-30 12:21:20,0.00,1.90,0.00,24.77,27.42,30.36,14.07,49.36,996.87,2029.99,2805.94,2582.99,2942.04,599.87,580.87,26.58,0000 0000 0000 0000 000000
2017-03-30 12:26:21,0.01,1.90,0.00,24.87,27.42,30.38,14.09,49.17,996.69,2029.99,2805.49,2582.96,2942.00,599.87,580.60,26.63,0000 0000 0000 0000 000000
2017-03-30 12:31:22,0.01,1.90,0.00,25.14,27.42,30.40,14.12,49.23,996.61,2029.99,2805.22,2582.77,2942.00,600.40,580.43,26.68,0000 0000 0000 0000 000000
2017-03-30 12:36:23,0.01,1.90,0.00,25.12,27.43,30.42,14.09,49.20,996.60,2029.99,2805.02,2582.25,2941.99,599.97,580.12,26.73,0000 0000 0000 0000 000000
2017-03-30 12:41:25,0.00,1.90,0.00,24.81,27.43,30.38,14.19,49.23,996.58,2029.99,2805.00,2582.04,2941.96,600.36,581.03,26.78,0000 0000 0000 0000 000000
2017-03-30 12:46:25,0.00,1.90,0.00,24.81,27.42,30.36,14.16,49.18,996.39,2029.99,2804.98,2582.00,2941.70,600.05,580.73,26.83,0000 0000 0000 0000 000000
2017-03-30 12:51:27,0.00,1.90,0.00,25.09,27.43,30.41,14.05,49.13,996.17,2029.99,2804.98,2582.00,2941.40,599.97,579.89,26.88,0000 0000 0000 0000 000000
2017-03-30 12:56:28,0.00,1.91,0.00,25.15,27.44,30.42,14.08,49.28,996.12,2029.99,2804.92,2582.00,2941.07,599.93,579.77,26.93,0000 0000 0000 0000 000000